Regional Weather Roundup
Issued by NWS Sterling, VA

Home | Current Version | Previous Version | Graphics & Text | Print | Product List | Glossary On
Versions: 1 2 3 4 5 6 7 8 9 10 11 12 13 14 15 16 17 18 19 20 21 22 23 24 25 26 27
000
ASUS41 KLWX 050411
RWRLWX

REGIONAL WEATHER ROUNDUP
NATIONAL WEATHER SERVICE BALTIMORE MD/WASHINGTON DC
1100 PM EST SUN DEC 04 2016

Note: "FAIR" indicates few or no clouds below 12,000 feet
with no significant weather and/or obstructions to visibility.
 TC=TEMPERATURE CELSIUS

 * =Non NWS site. Station does not report precipitation (e.g. rain,
    snow, etc.), thunder, or fog.

DCZ001-MDZ009-015-VAZ040>042-051-053>054-050500-
WASHINGTON METRO

CITY           SKY/WX    TMP DP  RH WIND       PRES   REMARKS
WASHINGTON NAT LGT RAIN  42  37  82 S12       30.12F
DULLES         LGT RAIN  38  35  89 S7        30.11S FOG
ANDREWS AFB    DRIZZLE   39  36  87 S10       30.10F
FT BELVOIR     LGT RAIN  39  36  88 SE7       30.12F
QUANTICO       LGT RAIN  39  37  93 S15       30.13F
COLLEGE PARK*  CLOUDY    39  34  81 S3        30.11F
LEESBURG*      RAIN      39  37  93 MISG      30.09F
MANASSAS*      CLOUDY    39  39 100 S6        30.11F
GAITHERSBURG*  CLOUDY    37  30  75 S6        30.14S

$$

MDZ006>007-011-014-050500-
BALTIMORE METRO

CITY           SKY/WX    TMP DP  RH WIND       PRES   REMARKS
BWI AIRPORT    LGT RAIN  40  36  86 VRB3      30.12F
MD SCIENCE CTR   N/A     43  33  68 MISG      30.10F
ANNAPOLIS      LGT RAIN  43  36  76 S7        30.12F
FORT MEADE*    CLOUDY    37  34  87 CALM      30.14F

$$

MDZ012-015-019>023-050500-
MARYLAND EASTERN SHORE

CITY           SKY/WX    TMP DP  RH WIND       PRES   REMARKS
OCEAN CITY     CLOUDY    42  35  76 W3        30.17S
SALISBURY      LGT RAIN  40  35  83 CALM      30.16S
BAY BRIDGE AP* LGT RAIN  43  37  81 S6        30.13F
CAMBRIDGE*     MOCLDY    39  36  87 CALM      30.14F
EASTON*        LGT RAIN  42  35  75 S5        30.17F

$$

MDZ017>025-050500-
SOUTHERN MARYLAND

CITY           SKY/WX    TMP DP  RH WIND       PRES   REMARKS
PATUXENT RIVER CLOUDY    42  36  79 S6        30.14F
ST INIGOES     LGT RAIN  43  34  70 S5        30.14F
LEONARDTOWN*   CLOUDY    41  36  81 S3        30.15F

$$

MDZ003>005-050500-
NORTH CENTRAL MARYLAND

CITY           SKY/WX    TMP DP  RH WIND       PRES   REMARKS
FREDERICK*     LGT RAIN  37  36  93 SE5       30.11S
HAGERSTOWN APT CLOUDY    39  32  76 S12       30.03F
WESTMINSTER*   LGT RAIN  37  32  81 S10       30.07F

$$

MDZ501>502-050500-
WESTERN MARYLAND

CITY           SKY/WX    TMP DP  RH WIND       PRES   REMARKS
OAKLAND*       FOG       30  30 100 SE9       29.84F VSB 1/2 WCI  22
CUMBERLAND*    NOT AVBL

$$

VAZ025>031-050500-
SHENANDOAH VALLEY

CITY           SKY/WX    TMP DP  RH WIND       PRES   REMARKS
WINCHESTER*    HVY RAIN  36  34  93 S9        30.02F WCI  29
FRONT ROYAL*   CLOUDY    36  36 100 SW3       30.01F
LURAY*         LGT RAIN  37  37 100 SW9       30.01F
NEW MARKET*    CLOUDY    37  34  92 SW7       30.01F
STAUNTON*      DRIZZLE   35  34  98 S7        30.05F
WAYNESBORO*    CLOUDY    35  34  96 CALM      30.04S

$$

WVZ021-048>050-054>055-050500-
EASTERN WEST VIRGINIA PANHANDLE

CITY           SKY/WX    TMP DP  RH WIND       PRES   REMARKS
MARTINSBURG    CLOUDY    37  34  89 SE7       30.03F
PETERSBURG*    CLOUDY    40  36  84 S7        29.97F

$$

VAZ036>039-050-050500-
CENTRAL FOOTHILLS

CITY           SKY/WX    TMP DP  RH WIND       PRES   REMARKS
CHARLOTTESVILL RAIN      39  36  89 S8        30.08F FOG
CULPEPER*      DRIZZLE   38  38  98 CALM      30.11S
ORANGE*        DRIZZLE   37  37 100 CALM      30.12S
GORDONSVILLE*  CLOUDY    37  37  99 S3        30.10S FOG
WARRENTON*     DRIZZLE   38  34  84 S5        30.10F

$$

VAZ055>057-050500-
NORTH AND CENTRAL PIEDMONT

CITY           SKY/WX    TMP DP  RH WIND       PRES   REMARKS
FREDERICKSBRG* LGT RAIN  39  39 100 SE6       30.11F
STAFFORD*      DRIZZLE   37  37 100 S5        30.15F

$$

NCZ024-NYZ072-PAZ021-071-VAZ022-071-050500-
OTHER REGIONAL OBSERVATIONS

CITY           SKY/WX    TMP DP  RH WIND       PRES   REMARKS
NEW YORK CITY  CLOUDY    40  24  53 VRB5      30.17F
PHILADELPHIA   CLOUDY    43  30  60 S6        30.14F
PITTSBURGH     LGT RAIN  38  35  89 SE5       29.84F FOG
ROANOKE        LGT RAIN  37  36  96 SE5       30.08S FOG
RICHMOND       LGT RAIN  39  38  96 SE6       30.12F FOG
RALEIGH        LGT RAIN  42  41  96 SE3       30.10F FOG

$$

ANZ530>537-050500-
MARINE OBSERVATIONS

STATION/POSITION TIME  TEMP    WIND        PRES
                       AIR SEA DIR/SP/G
                 (UTC) (F)     (DEG/KT/KT) (MB)
THOMAS PT LIGHT  0400   43 49  190/ 17/ 18   N/A
BALT KEY BRIDGE  0336   43     150/ 12/ 14 1019.6F
COVE POINT       0336   42     220/  8/ 11 1021.3F
LEWISETTA        0336   43 48  180/  4/  5 1020.9F
SOLOMONS ISLAND  0336   43 51  200/  7/  8   N/A
PINEY POINT      0336          210/  9/ 11   N/A

$$





USA.gov is the U.S. government's official web portal to all federal, state and local government web resources and services.